SCP
1 1 1 1 1 1 1 1 1 1 1 0 0 0 0 0 0 0 0 0 0 0 0 0 0 0 0 0 0 0 0 0 0 0 0 0 0 0 0 0 0 0 0
1 1 1 1 1 1 1 1 1 1 1 0 0 0 0 0 0 0 0 0 0 0 0 0 0 0 0 0 0 0 0 0 0 0 0 0 0 0 0 0 0 0 0
1 1 1 1 1 1 1 1 1 1 1 0 0 0 0 0 0 0 0 0 0 0 0 0 0 0 0 0 0 0 0 0 0 0 0 0 0 0 0 0 0 0 0
2 2 1 1 1 1 2 2 1 1 1 0 0 0 0 0 0 0 0 0 0 0 0 0 0 0 0 0 0 0 0 0 0 0 0 0 0 0 0 0 0 0 0
3 2 2 1 1 1 2 2 2 1 1 0 0 0 0 0 0 0 0 0 0 0 0 0 0 0 0 0 0 0 0 0 0 0 0 0 0 0 0 0 0 0 0
3 3 2 2 2 1 2 2 2 1 1 1 0 0 0 0 0 0 0 0 0 0 0 0 0 0 0 0 0 0 0 0 0 0 0 0 0 0 0 0 0 0 0
3 3 3 3 2 2 2 2 2 2 1 1 1 0 0 0 0 0 0 0 0 0 0 0 0 0 0 0 0 0 0 0 0 0 0 0 0 0 0 0 0 0 0
3 3 3 3 3 2 2 2 2 1 1 1 0 0 0 0 0 0 0 0 0 0 0 0 0 0 0 0 0 0 0 0 0 0 0 0 0 0 0 0 0 0 0
3 3 3 3 3 2 2 2 2 1 1 1 0 0 0 0 0 0 0 0 0 0 0 0 0 0 0 0 0 0 0 0 0 0 0 0 0 0 0 0 0 0 0
3 3 3 3 3 2 2 2 2 1 1 1 0 0 0 0 0 0 0 0 0 0 0 0 0 0 0 0 0 0 0 0 0 0 0 0 0 0 0 0 0 0 0
3 3 2 2 2 2 1 1 1 1 1 1 0 0 0 0 0 0 0 0 0 0 0 0 0 0 0 0 0 0 0 0 0 0 0 0 0 0 0 0 0 0 0
3 3 2 2 2 2 1 1 1 1 1 1 0 0 0 0 0 0 0 0 0 0 0 0 0 0 0 0 0 0 0 0 0 0 0 0 0 0 0 0 0 0 0
4 3 2 2 2 2 2 1 1 1 1 1 0 0 0 0 0 0 0 0 0 0 0 0 0 0 0 0 0 0 0 0 0 0 0 0 0 1 0 0 0 0 0
3 3 2 2 2 2 2 1 1 1 1 0 0 0 0 0 0 0 0 0 0 0 0 0 0 0 0 0 0 0 0 0 0 0 0 0 0 1 0 0 0 0 0
3 3 2 2 2 2 2 1 1 1 1 1 0 0 0 0 0 0 0 0 0 0 0 0 0 0 0 0 0 0 0 0 0 0 0 0 0 0 0 0 0 0 0
3 3 2 2 2 2 2 1 1 1 1 1 0 0 0 0 0 0 0 0 0 0 0 0 0 0 0 0 0 0 0 0 0 0 0 0 0 0 0 0 0 0 0
3 3 3 3 3 2 2 2 2 1 1 1 1 1 0 0 0 0 0 0 0 0 0 0 0 0 0 0 0 0 0 0 0 0 0 0 0 0 0 0 0 0 0
4 4 3 3 3 3 2 2 2 2 1 1 1 1 1 0 0 0 0 0 0 0 0 0 0 0 0 0 0 0 0 0 0 0 0 0 0 0 0 0 0 0 0
4 4 4 4 4 3 2 2 2 1 1 1 1 1 1 0 0 0 0 0 0 0 0 0 0 0 0 0 0 0 0 0 0 0 0 0 0 0 0 0 0 0 0
5 5 5 5 5 4 3 2 2 2 1 1 1 1 1 1 0 0 0 0 0 0 0 0 0 0 0 0 0 0 0 0 0 0 0 0 0 0 0 0 0 0 0
5 6 7 7 7 5 4 3 2 2 2 2 2 2 1 1 1 1 0 0 0 0 0 0 0 0 0 0 0 0 0 0 0 0 0 0 0 0 0 0 0 0 0
5 6 7 8 7 5 4 3 2 2 2 2 3 2 2 1 1 1 1 0 0 0 0 0 0 0 0 0 0 0 0 0 0 0 0 0 0 0 0 0 0 0 0
4 5 6 6 6 4 3 3 2 3 2 2 2 2 2 1 1 1 1 1 1 0 0 0 0 0 0 0 0 0 0 0 0 0 0 0 0 0 0 0 0 0 0
4 4 4 4 4 4 3 3 3 3 3 2 2 2 1 1 1 1 1 1 1 1 1 1 1 0 0 0 0 0 0 0 0 0 0 0 0 0 0 0 0 0 0
3 3 3 3 3 3 3 3 3 3 3 3 2 2 1 1 1 1 1 1 1 1 1 1 1 0 0 0 0 0 0 0 0 0 0 0 0 0 0 0 0 0 0
2 2 2 2 2 2 3 3 3 3 3 3 3 2 1 1 1 1 1 1 1 1 1 1 1 1 0 0 0 0 0 0 0 0 0 0 0 0 0 0 0 0 0
Wind_Speed
7 9 15 17 17 17 17 17 17 17 17 17 17 17 16 17 16 16 15 15 14 13 13 13 13 14 14 14 14 15 16 16 17 17 17 17 17 18 18 17 16 12 18
12 12 17 17 17 17 17 17 17 17 16 16 16 16 15 15 15 15 14 14 13 13 13 13 13 14 13 14 14 15 16 16 16 17 16 15 16 17 17 16 15 11 18
15 12 15 17 18 18 17 17 16 16 16 15 15 15 15 15 14 14 14 14 13 13 13 13 13 13 13 13 14 14 15 15 15 16 14 7 10 16 16 16 16 16 16
15 12 13 18 18 18 17 17 16 16 15 15 14 14 14 14 14 14 13 13 13 13 13 13 13 13 12 13 13 13 13 14 15 14 7 5 7 15 16 16 16 16 16
13 11 15 20 19 19 18 17 16 16 15 14 14 14 14 14 13 13 13 13 13 13 13 13 12 12 12 12 11 11 11 12 13 10 6 6 6 14 15 15 16 15 15
12 10 14 20 19 19 18 17 16 16 15 14 14 13 13 13 13 13 13 13 13 12 12 12 12 12 11 11 10 10 10 12 11 6 6 5 5 13 15 15 15 15 14
13 10 13 19 19 18 18 17 16 16 15 14 14 13 13 13 13 13 13 13 12 12 12 12 11 11 10 10 9 9 10 12 8 6 5 5 6 13 14 14 14 14 14
15 11 12 19 19 18 18 17 16 16 15 14 14 13 13 13 13 13 12 12 12 12 11 11 10 10 9 8 8 7 9 11 10 8 6 5 9 12 14 14 14 14 13
14 12 9 11 14 17 17 17 16 15 15 14 13 13 13 13 12 12 12 12 12 11 11 10 10 9 8 7 6 6 8 11 6 5 8 5 10 13 14 13 13 13 13
11 10 9 8 8 8 10 16 16 15 14 14 14 13 13 12 12 12 10 10 11 11 10 9 8 7 6 6 6 7 10 10 5 5 4 6 11 13 13 13 13 12 12
11 9 9 9 8 7 7 12 13 14 13 12 11 13 10 5 5 6 9 10 10 10 9 8 8 6 5 4 6 9 9 3 4 4 3 9 12 13 13 13 12 12 12
13 11 9 9 9 8 8 6 4 5 6 5 4 6 4 4 3 5 8 10 10 9 8 7 6 5 4 2 4 7 3 4 3 3 4 12 12 13 13 12 12 12 11
14 13 11 10 10 8 5 5 3 3 3 4 5 5 4 3 3 3 2 4 4 5 3 3 3 1 2 2 2 2 3 3 2 3 5 12 12 13 13 12 11 11 11
14 14 12 11 10 8 7 5 4 3 3 3 4 5 4 3 3 3 2 2 2 2 2 1 1 1 1 2 2 3 4 3 2 2 5 12 11 12 13 12 11 11 11
13 13 13 11 10 8 7 6 6 5 5 4 4 5 5 4 4 4 3 3 3 2 2 2 2 2 1 2 3 4 4 5 4 4 4 12 12 11 12 12 12 11 11
12 12 11 11 11 10 7 6 6 6 5 4 4 6 6 5 5 4 4 3 3 3 3 3 3 3 2 2 3 4 5 5 5 4 3 7 11 11 11 12 12 11 11
13 12 12 12 11 10 8 7 5 5 5 4 4 5 6 6 6 5 4 4 3 3 4 2 2 2 2 2 3 4 4 4 5 5 4 3 4 8 10 11 11 11 11
12 12 12 12 11 9 8 6 4 4 5 4 4 5 6 6 6 5 4 4 3 3 3 3 2 2 2 2 2 2 3 4 5 5 4 4 3 4 7 11 10 10 11
12 12 10 9 10 8 7 5 5 4 4 4 4 4 5 6 6 5 4 3 4 3 3 3 2 2 2 2 2 2 2 3 4 6 5 5 5 4 4 7 10 10 11
10 10 10 9 8 7 5 4 3 3 3 3 4 4 5 5 6 5 4 4 4 3 3 2 3 2 2 2 1 1 1 2 3 4 6 5 5 6 5 5 5 7 12
8 9 9 9 8 6 4 4 4 3 3 3 3 5 6 6 6 5 4 4 4 4 4 4 3 2 1 2 2 2 2 1 2 3 3 4 5 6 5 5 4 3 4
9 8 8 8 8 8 5 4 3 4 3 3 3 4 5 6 6 6 5 4 4 4 4 4 3 2 1 2 3 2 1 3 2 2 2 4 5 4 5 6 5 4 3
9 9 9 9 8 7 6 4 3 3 2 2 2 3 5 6 6 5 6 4 4 4 4 4 4 4 2 1 2 4 3 3 2 2 2 2 3 3 4 4 5 5 5
8 7 7 8 8 7 7 6 7 6 5 5 4 4 4 5 6 6 6 5 5 4 4 4 4 3 4 2 1 1 2 4 3 1 2 1 2 3 3 4 4 4 4
7 7 7 7 7 7 7 8 8 5 4 3 4 5 4 4 5 6 6 5 5 4 4 4 4 4 3 3 2 1 1 1 2 3 1 1 1 1 2 2 2 2 3
6 6 7 7 6 6 7 8 8 7 6 6 5 5 4 3 3 5 5 5 5 4 4 4 4 5 3 3 3 2 3 2 3 3 3 2 1 1 0 1 1 1 1
Wind_Direction
142 147 142 135 130 125 120 116 112 108 106 104 102 102 103 105 106 108 111 116 118 118 117 116 113 112 112 113 113 113 114 115 115 115 117 118 117 117 115 113 111 111 112
143 146 141 136 134 129 124 120 116 114 111 109 108 107 107 107 108 109 112 116 119 119 119 118 117 116 115 114 115 116 117 116 116 116 115 116 118 117 115 114 113 115 114
138 141 140 137 135 131 127 124 121 118 116 114 112 111 110 110 110 111 113 116 118 119 120 120 120 119 118 117 117 118 118 117 115 112 108 99 112 118 118 117 116 114 114
138 138 140 138 136 133 130 128 126 123 119 117 115 115 114 113 112 112 113 116 117 119 121 122 123 122 121 121 120 120 121 122 118 113 104 102 112 119 119 119 117 115 116
134 136 142 140 138 135 133 131 129 127 124 122 120 118 117 116 116 114 115 117 118 120 122 123 123 123 123 122 121 120 121 120 120 110 100 94 101 120 120 120 118 117 116
131 135 142 140 139 138 137 135 133 131 128 126 123 121 120 120 119 118 119 119 120 122 124 124 125 125 125 123 121 121 122 120 113 109 104 102 107 122 122 123 121 120 119
135 137 141 141 140 140 140 139 137 135 132 130 127 125 123 122 121 120 120 121 122 124 125 125 127 127 125 123 121 119 123 123 115 116 112 109 118 124 124 124 122 122 121
139 139 141 143 143 143 143 141 140 139 137 135 133 130 128 126 125 123 123 124 124 126 128 128 129 129 127 122 118 117 126 130 125 126 120 118 128 127 127 126 127 126 125
140 139 140 144 145 146 145 145 145 143 142 140 137 135 133 132 130 128 128 127 128 130 132 135 134 132 127 120 113 111 126 133 122 131 134 127 131 131 131 131 131 131 131
139 141 140 139 141 144 147 149 149 148 146 144 143 141 139 137 135 134 132 133 134 135 136 138 138 135 128 119 106 105 121 122 122 126 126 139 139 138 138 136 135 136 136
144 145 145 143 143 142 146 155 153 151 152 149 148 148 141 127 128 134 142 142 142 142 141 141 141 139 127 108 103 106 107 109 117 125 136 147 147 145 144 143 142 142 142
156 157 156 154 150 152 156 144 143 147 146 143 145 143 135 138 151 150 156 150 150 147 146 148 148 142 112 84 92 102 103 120 124 138 152 152 152 150 149 149 149 149 147
161 163 164 164 160 161 148 147 146 141 145 149 155 154 152 151 155 143 145 148 147 146 137 147 143 126 118 108 101 113 126 127 141 151 158 158 157 155 155 155 155 153 151
165 168 168 169 166 162 153 158 159 157 162 167 172 164 154 150 151 154 153 154 151 145 154 157 148 151 127 130 129 136 140 139 146 140 162 163 162 161 160 162 163 162 159
167 169 170 167 167 161 157 168 168 169 174 175 171 170 162 156 161 164 167 172 176 168 167 170 178 195 196 166 154 151 148 148 153 157 165 171 168 166 166 169 170 169 168
168 167 164 164 165 162 167 172 170 172 173 172 170 173 167 161 163 163 166 176 186 179 171 174 186 184 182 160 154 155 156 156 160 163 165 175 175 173 174 176 177 177 177
169 164 163 163 161 164 169 174 169 168 166 171 174 171 170 166 163 161 159 174 186 172 163 161 172 153 156 155 154 156 159 162 164 168 169 170 177 182 181 182 183 185 186
161 160 167 166 161 164 163 159 151 157 160 171 174 172 172 168 163 158 162 176 176 160 152 157 156 146 154 158 164 168 160 165 170 174 174 176 176 186 193 191 190 191 194
161 161 165 160 162 161 156 148 143 150 159 169 170 168 169 166 163 158 166 174 163 153 159 171 149 150 158 172 183 173 171 172 179 180 182 185 185 189 192 201 199 198 202
158 158 158 156 159 152 146 135 131 136 157 166 170 169 163 166 163 157 163 167 153 147 155 155 145 144 151 164 164 132 174 187 189 188 189 186 192 198 196 200 201 210 213
153 156 158 156 160 154 153 156 155 161 164 166 181 176 169 170 165 159 163 163 157 159 171 163 141 140 142 131 91 36 360 337 209 210 192 183 195 199 193 199 200 203 219
164 164 161 163 165 168 168 164 161 154 170 172 181 180 179 175 171 169 160 165 166 158 158 157 144 137 157 146 133 108 17 343 317 237 203 196 200 190 195 200 196 200 210
171 174 171 169 173 176 167 148 136 121 118 144 174 181 186 180 179 171 166 163 165 162 168 172 161 150 162 184 156 145 151 213 281 315 251 209 190 185 196 195 199 201 202
179 174 167 168 173 177 171 167 164 170 177 183 178 181 182 182 182 173 171 168 167 166 171 180 169 156 148 170 191 182 170 160 156 247 322 279 189 190 197 202 206 199 199
170 169 167 168 175 180 179 177 173 179 181 165 162 173 181 190 191 177 173 168 165 168 175 174 162 161 158 165 172 167 156 142 139 143 202 282 322 243 203 194 190 190 192
165 167 169 171 180 181 179 176 176 179 175 167 173 179 184 191 194 184 174 172 170 170 174 177 171 167 166 158 159 159 163 164 181 160 170 201 209 278 93 135 167 175 166